Temperature
20 20 20 20 20 20 20 20 20 19 19 19 19 19 19 19 18 18 18 18 18 18 18 18 18 18 18 18 18 17 18 18 18 18 18 18 18 18 18 18 18 18 18
20 20 20 20 20 20 20 20 20 19 19 19 19 19 19 19 19 18 18 18 18 18 18 18 18 18 18 18 17 17 17 18 17 17 17 17 18 18 18 18 18 18 18
21 21 20 20 20 20 20 20 20 20 19 19 19 19 19 19 18 19 18 18 18 18 18 18 18 17 17 17 17 17 17 17 17 17 17 17 17 17 18 18 18 18 18
21 21 21 20 20 20 20 20 20 20 19 19 19 19 19 19 19 19 19 18 18 18 18 18 18 17 17 17 17 17 17 17 17 17 17 17 17 16 17 17 18 18 18
21 21 21 21 21 20 20 20 20 20 20 19 19 19 19 19 19 18 18 18 18 18 18 18 18 17 17 17 17 17 17 17 17 17 17 17 17 17 16 16 17 17 18
22 22 21 21 21 20 20 20 20 20 20 19 19 19 19 19 19 19 19 18 18 18 18 18 17 17 17 17 17 17 17 17 17 17 17 17 16 16 16 16 16 17 17
21 21 21 21 21 20 20 20 20 20 19 19 19 19 19 19 19 19 18 18 18 18 18 18 17 17 17 17 17 17 17 17 17 17 17 17 17 16 16 16 16 16 17
22 22 22 21 21 20 20 20 20 20 19 19 19 19 18 18 18 18 18 18 18 18 18 17 17 17 17 17 17 17 17 17 17 17 17 17 17 17 16 16 16 16 16
22 22 21 21 21 20 20 20 20 20 19 19 19 19 19 18 18 18 18 18 18 18 17 17 17 17 17 17 17 17 17 17 17 17 17 17 16 16 16 16 16 16 16
21 21 21 21 21 20 20 20 20 20 19 19 19 19 19 18 18 18 18 18 18 17 17 17 17 17 17 17 17 17 17 17 17 16 16 16 16 16 16 16 16 16 16
21 21 21 21 20 20 20 20 20 19 19 19 19 19 19 18 18 18 18 17 18 17 17 17 17 17 17 17 17 17 16 16 16 16 16 16 16 16 16 16 16 16 16
21 21 21 20 20 20 20 19 19 19 19 19 18 18 18 18 18 18 18 18 18 17 17 17 17 17 17 17 16 16 16 16 16 16 16 16 16 16 16 16 16 16 15
20 21 21 20 20 20 19 19 19 19 19 18 18 18 18 18 18 18 18 17 17 17 17 17 16 16 16 16 16 16 16 16 16 16 16 16 16 16 16 16 15 15 15
20 20 20 20 20 20 19 19 19 19 18 18 18 18 18 18 18 17 17 17 17 17 17 16 16 16 16 16 16 16 16 16 15 15 15 15 15 15 15 15 15 15 15
20 20 20 20 20 19 19 19 19 18 18 18 18 18 18 18 17 17 17 17 16 16 16 16 16 16 16 16 16 16 15 15 15 15 15 15 15 15 15 15 15 15 14
19 20 20 20 20 20 19 19 18 18 18 18 18 18 17 17 17 17 17 16 16 16 16 16 16 16 16 15 15 15 15 15 15 15 15 15 15 14 14 14 14 14 14
20 20 20 20 20 19 19 19 18 18 17 17 17 17 17 17 16 16 16 16 16 16 16 16 16 16 15 15 15 15 15 15 15 15 15 14 14 14 14 14 14 14 14
20 20 20 20 20 19 19 18 18 17 17 17 17 16 16 16 16 16 16 16 15 15 15 15 15 15 15 15 15 15 14 14 14 14 14 14 14 14 14 14 14 14 14
20 20 20 19 19 19 18 18 17 17 17 17 17 16 16 16 16 16 16 15 15 15 15 15 15 15 15 15 14 14 14 14 14 14 14 14 14 14 13 13 13 13 13
20 19 19 19 19 18 18 17 17 17 17 17 17 16 16 16 16 16 15 15 15 15 15 15 15 15 14 14 14 14 14 14 14 14 14 14 13 13 13 13 13 13 13
19 19 19 18 18 18 17 17 17 17 17 16 16 16 16 15 15 15 15 15 15 15 15 15 14 14 14 14 14 14 14 14 14 14 14 13 13 13 13 13 13 13 13
19 18 18 18 18 17 17 17 17 16 16 16 16 16 15 15 15 15 15 15 15 14 14 14 14 14 14 14 14 14 13 13 13 13 13 13 13 13 13 13 13 12 12
18 18 18 18 17 17 17 16 16 16 16 15 15 15 15 15 15 15 15 14 14 14 14 14 14 14 14 13 13 13 13 13 13 13 13 13 13 12 12 12 12 12 12
17 17 17 17 16 16 16 16 15 15 15 15 15 15 15 15 14 14 14 14 14 14 13 13 13 13 13 13 13 13 13 13 12 12 12 12 12 12 12 12 12 11 11
17 17 16 16 16 16 15 15 15 15 15 15 14 14 14 14 14 14 14 14 14 14 13 13 13 13 13 13 13 13 12 12 12 12 12 12 11 11 11 11 11 11 11
16 16 16 16 16 15 15 15 15 14 14 14 14 14 14 14 14 14 14 13 13 13 13 13 13 13 12 12 12 12 12 12 12 11 11 11 11 11 11 11 11 11 10
Wind_Speed
5 5 5 5 5 4 4 4 3 3 3 2 2 2 2 1 1 3 4 5 5 5 4 3 2 2 2 2 2 1 1 0 1 1 2 2 1 1 2 2 2 3 3
6 7 6 6 6 5 5 4 3 3 3 3 2 2 1 1 2 2 2 4 5 5 5 4 3 2 2 2 2 2 1 1 1 1 1 2 3 2 1 1 2 3 2
10 8 8 7 6 7 6 6 5 3 3 2 2 1 1 1 0 1 1 2 4 4 4 4 3 3 3 3 3 3 3 2 1 1 2 1 2 2 2 2 2 2 3
8 8 9 8 8 8 6 5 4 4 3 3 3 3 2 2 2 1 1 1 1 1 2 3 3 3 3 4 4 3 3 3 2 1 1 2 2 1 3 2 2 3 4
9 10 10 10 8 7 6 5 4 4 3 3 3 3 2 2 1 0 1 1 1 1 0 1 2 3 3 4 4 3 4 3 3 2 2 1 1 2 2 4 4 3 4
9 8 8 7 6 6 6 5 5 4 4 4 3 4 3 2 1 0 0 1 0 0 0 0 1 2 3 3 4 4 4 4 4 3 3 2 2 2 3 4 5 5 4
9 8 8 8 8 8 8 7 7 5 4 4 4 4 3 3 3 2 1 1 1 1 2 1 1 2 2 2 2 3 4 4 4 4 4 3 3 2 3 3 4 4 3
9 10 10 9 8 9 9 8 8 6 5 5 4 3 3 3 2 2 2 2 2 2 2 1 1 2 2 2 2 2 3 3 4 5 4 3 3 3 3 3 2 3 3
8 8 8 7 7 8 9 9 8 6 5 5 4 3 3 2 2 2 2 2 2 2 1 1 1 1 1 1 2 2 2 2 2 3 4 3 3 4 4 4 3 3 3
7 6 6 7 7 7 6 7 7 7 6 5 4 3 2 2 2 2 2 2 2 1 1 1 1 1 1 1 1 2 2 2 3 3 3 3 3 3 3 4 4 4 4
7 7 6 5 5 5 6 7 6 5 5 5 4 3 3 3 3 2 3 3 2 2 2 2 2 2 2 1 1 2 3 3 3 3 3 4 3 2 3 3 3 3 3
5 5 5 5 5 6 6 7 6 6 5 5 4 4 3 3 3 3 3 3 3 2 2 2 2 2 2 2 2 3 3 3 4 4 4 4 3 3 3 3 3 4 4
3 3 4 5 6 6 6 6 6 6 5 4 4 4 3 3 4 3 3 3 2 2 1 1 2 2 2 2 3 3 4 4 5 5 5 5 4 4 4 4 4 4 4
5 5 4 4 5 5 5 6 5 5 5 4 4 3 3 3 3 3 2 2 2 2 2 2 2 2 2 3 3 3 4 5 5 5 5 5 5 5 5 4 5 4 3
6 6 5 5 4 4 4 4 4 4 4 4 3 3 3 3 3 2 2 3 3 3 3 2 2 2 3 3 3 3 4 5 5 5 5 5 6 6 5 4 4 4 3
6 7 6 5 5 5 5 4 3 3 3 3 2 2 2 2 2 3 3 4 3 3 2 2 2 2 3 4 4 3 3 4 4 5 5 5 6 6 6 6 5 5 5
7 7 7 6 6 6 6 5 4 3 3 3 2 1 2 3 3 3 2 2 2 2 2 2 2 3 4 5 4 4 3 4 4 4 4 4 4 4 4 5 6 6 7
7 6 6 6 5 5 5 5 4 4 4 3 2 2 2 3 3 2 2 2 2 2 2 3 2 3 4 5 5 4 3 4 4 4 4 4 5 4 4 4 4 5 5
5 5 5 5 5 5 5 5 4 4 4 3 3 3 2 3 3 3 3 2 2 2 2 2 2 3 4 5 4 3 2 3 4 4 3 3 4 5 4 4 5 5 5
2 3 4 4 4 4 5 6 5 5 5 4 4 3 3 3 3 4 3 2 2 3 2 2 2 3 4 5 4 3 2 3 3 3 3 4 4 5 3 3 4 5 5
2 4 5 5 4 4 5 5 5 5 5 3 2 2 2 3 4 3 3 2 2 2 2 2 2 2 3 4 4 3 1 3 3 3 3 3 5 5 4 3 4 5 4
2 4 4 3 3 4 6 5 5 4 2 2 2 3 3 3 3 3 3 2 3 2 2 2 3 2 2 3 3 4 3 2 2 3 3 3 4 4 4 3 3 3 2
3 3 4 4 2 3 4 5 3 2 2 2 3 3 3 3 2 3 3 2 2 2 2 2 3 3 3 3 4 4 3 3 2 2 3 3 3 3 2 2 2 1 1
3 3 4 4 2 1 2 3 3 2 2 3 3 3 2 2 2 2 2 3 3 3 3 3 3 3 3 3 3 3 3 3 2 2 2 2 2 2 2 2 2 1 1
3 3 4 4 3 2 1 1 1 2 2 2 2 2 2 2 2 2 2 4 4 5 5 4 4 4 4 5 4 2 2 2 2 1 1 2 2 2 3 2 2 2 1
3 3 4 4 3 2 2 2 1 2 3 2 2 2 2 2 2 2 2 2 3 3 5 5 5 4 5 4 3 3 3 3 2 1 0 1 1 2 2 2 3 2 2
Wind_Direction
192 175 169 159 156 157 156 161 155 160 148 152 159 173 204 221 238 239 228 221 218 211 202 216 207 183 187 204 194 168 151 59 95 57 342 327 306 259 247 241 239 243 244
184 182 177 171 172 175 177 176 175 171 171 178 178 173 174 203 227 261 246 227 219 210 205 198 200 195 198 208 197 176 165 170 138 133 55 344 340 325 275 246 239 246 244
190 185 183 185 183 189 189 190 192 184 180 171 138 107 75 37 21 299 260 247 231 213 203 200 196 195 199 216 219 196 187 201 200 164 162 176 264 308 292 255 250 250 242
188 185 186 190 196 200 194 190 184 182 181 158 151 155 170 199 236 259 246 258 225 201 203 200 199 204 205 215 222 204 193 189 208 211 204 208 198 232 298 297 275 269 260
188 190 193 196 196 191 192 194 182 183 176 165 170 178 197 209 228 341 350 339 40 79 156 187 192 214 215 218 219 208 197 194 201 203 198 211 222 215 236 286 301 293 276
188 192 193 186 189 186 190 187 182 192 184 176 179 185 195 194 172 216 322 314 335 337 337 224 220 225 227 228 227 218 206 206 207 208 202 201 205 213 226 254 279 286 289
185 186 183 188 192 191 192 190 189 194 190 186 191 195 195 182 185 195 203 216 281 286 287 268 239 235 236 233 228 222 218 208 209 214 216 215 220 213 221 247 274 286 291
184 189 191 191 193 193 193 192 192 194 190 192 202 196 188 189 201 193 191 206 232 249 267 247 242 247 242 233 213 223 230 217 220 230 226 228 232 222 219 213 238 283 290
183 186 185 184 190 193 194 191 188 190 191 193 194 197 191 190 204 203 205 230 249 245 240 234 246 263 245 222 194 211 228 229 233 238 236 240 245 234 232 221 214 227 269
177 179 181 185 191 193 187 178 180 186 187 187 193 199 190 197 205 206 232 244 255 258 234 233 243 260 267 257 220 237 237 227 241 236 236 246 254 248 243 233 227 222 231
182 183 183 181 175 170 170 176 176 176 184 189 188 192 195 198 200 214 235 238 236 235 238 237 237 247 258 264 247 250 239 237 251 256 246 251 251 253 254 244 237 237 227
181 175 170 162 166 173 176 176 175 179 186 185 181 191 198 199 210 230 241 239 235 231 229 233 236 246 255 254 247 256 252 242 249 253 249 257 256 256 259 253 253 246 234
152 147 154 164 173 176 174 173 174 178 178 177 186 192 200 213 229 244 251 248 246 246 237 230 245 252 250 249 252 253 258 252 252 253 252 257 255 259 263 259 255 250 247
162 158 164 173 171 172 172 170 175 175 174 170 181 200 212 221 232 238 249 255 252 251 256 246 248 254 250 248 250 256 263 260 258 257 254 256 252 252 257 259 255 252 251
172 173 176 177 171 168 170 171 171 172 172 168 179 211 227 217 211 222 243 250 247 249 246 248 261 260 251 255 259 256 263 260 260 261 260 257 256 257 256 261 254 241 245
187 182 179 172 169 168 165 165 170 174 160 165 189 214 231 235 231 230 227 233 241 240 237 256 272 281 277 279 266 262 269 265 259 262 264 263 259 263 268 267 256 238 238
191 186 184 183 180 175 169 174 180 171 161 174 203 218 233 241 236 232 230 233 239 235 247 261 269 280 288 292 283 276 269 268 261 262 265 277 279 269 268 275 271 259 253
193 191 185 184 184 173 163 165 166 166 170 182 202 212 232 240 236 226 231 229 226 229 248 260 267 279 295 306 302 295 276 274 271 269 264 264 272 269 267 274 275 270 264
196 190 185 180 175 173 164 154 168 176 183 197 215 221 224 233 226 229 240 234 230 238 247 261 265 271 291 305 298 293 283 284 286 281 278 274 275 285 285 272 272 280 285
168 174 159 149 161 172 161 161 179 185 205 215 222 228 218 220 221 228 235 231 231 239 248 267 266 267 287 306 310 304 277 279 289 291 291 295 291 290 288 267 261 269 282
170 161 153 159 169 163 158 171 185 205 217 212 211 229 231 238 231 222 223 227 224 235 246 265 284 287 294 313 322 314 278 272 279 291 299 297 301 300 291 270 259 256 264
144 148 151 154 156 157 159 177 207 220 204 190 206 227 237 244 239 218 221 213 209 222 251 266 289 295 304 308 310 306 289 285 273 284 291 297 309 313 304 287 278 272 268
155 147 146 135 133 161 163 179 216 199 187 203 228 239 242 247 243 214 216 221 218 228 246 250 266 280 297 307 310 311 311 310 287 283 291 304 317 326 327 316 314 308 281
156 150 142 144 161 192 190 197 202 187 188 222 246 251 246 261 260 230 214 216 226 231 236 242 255 272 285 293 309 312 312 316 311 306 320 324 330 343 334 337 330 314 280
163 158 164 171 182 192 219 237 191 163 181 219 244 251 243 244 251 247 228 223 229 222 223 231 231 243 266 273 269 268 279 284 280 303 360 15 10 4 357 352 342 328 320
168 170 179 179 187 193 223 260 237 182 182 216 245 247 246 241 237 250 285 273 236 236 225 224 226 243 247 264 264 263 272 278 261 156 315 323 326 325 320 320 319 310 305
Height
1516 1518 1520 1521 1523 1524 1525 1527 1528 1529 1530 1531 1531 1532 1533 1534 1534 1535 1536 1536 1537 1538 1538 1539 1540 1540 1540 1541 1542 1542 1542 1543 1544 1544 1544 1545 1545 1546 1546 1547 1547 1547 1548
1515 1517 1518 1520 1522 1523 1525 1526 1527 1528 1529 1530 1531 1532 1532 1533 1533 1534 1534 1534 1535 1536 1537 1537 1538 1539 1540 1540 1540 1541 1541 1542 1543 1543 1543 1543 1544 1544 1545 1545 1545 1545 1545
1511 1514 1516 1518 1520 1522 1523 1524 1526 1527 1528 1529 1530 1531 1532 1532 1532 1533 1532 1533 1533 1534 1535 1536 1537 1537 1538 1538 1539 1539 1540 1541 1542 1542 1543 1543 1542 1542 1542 1542 1543 1543 1543
1509 1511 1514 1516 1518 1520 1522 1523 1525 1526 1527 1528 1529 1530 1530 1530 1531 1531 1531 1531 1532 1532 1533 1534 1535 1535 1536 1537 1537 1537 1537 1539 1539 1540 1541 1542 1541 1542 1540 1540 1540 1540 1540
1506 1508 1510 1513 1516 1519 1520 1522 1524 1525 1526 1527 1528 1529 1529 1530 1530 1530 1530 1530 1531 1531 1532 1532 1533 1533 1534 1535 1535 1535 1535 1536 1537 1538 1539 1539 1540 1540 1539 1537 1537 1537 1537
1503 1506 1508 1511 1514 1517 1518 1520 1521 1523 1524 1526 1527 1527 1528 1529 1529 1529 1529 1529 1529 1530 1530 1531 1531 1531 1532 1532 1533 1533 1533 1534 1535 1536 1537 1537 1537 1537 1537 1536 1534 1533 1533
1500 1503 1506 1508 1511 1513 1516 1517 1519 1521 1523 1524 1525 1526 1526 1527 1527 1527 1527 1527 1528 1528 1528 1529 1528 1529 1529 1530 1530 1531 1531 1532 1532 1533 1534 1534 1535 1535 1534 1533 1532 1530 1529
1497 1500 1503 1506 1508 1511 1513 1515 1516 1518 1521 1522 1523 1524 1525 1525 1525 1525 1526 1526 1526 1526 1527 1527 1527 1526 1527 1527 1527 1528 1529 1529 1530 1530 1531 1531 1532 1531 1531 1530 1529 1527 1526
1495 1498 1501 1503 1506 1508 1510 1512 1514 1516 1518 1520 1522 1522 1523 1524 1524 1524 1524 1524 1525 1525 1525 1525 1524 1524 1524 1524 1525 1525 1525 1526 1526 1527 1528 1528 1528 1528 1528 1527 1526 1526 1524
1494 1496 1499 1501 1503 1505 1507 1510 1512 1514 1516 1518 1519 1520 1521 1522 1522 1522 1522 1522 1522 1522 1522 1522 1522 1522 1522 1522 1522 1523 1523 1523 1524 1524 1524 1524 1524 1524 1524 1524 1523 1523 1522
1491 1494 1497 1499 1501 1503 1505 1507 1509 1511 1514 1515 1517 1518 1518 1519 1520 1520 1520 1520 1520 1520 1520 1520 1520 1519 1519 1519 1520 1520 1520 1520 1520 1520 1520 1520 1520 1520 1520 1520 1520 1519 1518
1490 1492 1495 1497 1499 1501 1503 1505 1507 1509 1511 1513 1514 1515 1516 1517 1517 1517 1517 1518 1517 1517 1517 1517 1517 1517 1516 1516 1517 1516 1516 1516 1516 1516 1516 1516 1516 1516 1516 1516 1515 1514 1514
1489 1491 1493 1495 1497 1499 1501 1503 1505 1507 1509 1510 1512 1512 1513 1514 1514 1515 1515 1515 1515 1514 1514 1514 1514 1514 1513 1513 1513 1513 1513 1512 1512 1512 1512 1512 1512 1512 1512 1511 1510 1510 1509
1488 1490 1492 1494 1496 1498 1500 1501 1503 1505 1507 1508 1509 1510 1510 1511 1512 1512 1512 1512 1512 1512 1512 1511 1511 1511 1510 1510 1509 1509 1509 1509 1509 1509 1508 1508 1508 1507 1507 1507 1506 1506 1505
1487 1488 1490 1492 1494 1496 1499 1500 1502 1504 1505 1506 1506 1507 1508 1508 1509 1509 1509 1509 1509 1509 1509 1509 1508 1508 1507 1506 1506 1505 1505 1504 1504 1504 1504 1504 1504 1504 1503 1503 1502 1502 1501
1485 1487 1489 1491 1493 1495 1497 1499 1501 1502 1503 1504 1504 1505 1506 1505 1505 1505 1505 1505 1506 1506 1506 1506 1505 1504 1504 1503 1503 1502 1501 1500 1500 1499 1499 1499 1499 1499 1499 1498 1498 1497 1497
1484 1486 1487 1489 1491 1493 1495 1496 1498 1499 1501 1501 1502 1502 1502 1502 1502 1502 1502 1502 1503 1503 1503 1503 1502 1501 1501 1500 1499 1498 1497 1496 1495 1495 1495 1495 1495 1495 1494 1494 1493 1492 1492
1483 1484 1486 1487 1490 1491 1493 1495 1496 1497 1498 1499 1500 1500 1500 1500 1499 1499 1499 1499 1499 1500 1500 1500 1499 1498 1498 1497 1496 1495 1494 1493 1492 1492 1491 1490 1490 1490 1489 1489 1488 1487 1487
1481 1482 1484 1486 1487 1489 1491 1493 1494 1495 1496 1496 1497 1497 1497 1496 1496 1496 1497 1497 1497 1497 1497 1497 1497 1496 1495 1494 1493 1492 1491 1490 1489 1488 1488 1487 1486 1486 1485 1484 1483 1482 1482
1479 1481 1483 1484 1485 1487 1488 1490 1491 1492 1493 1494 1494 1495 1494 1494 1494 1494 1495 1495 1494 1494 1495 1494 1494 1493 1492 1492 1490 1489 1488 1486 1485 1484 1483 1483 1482 1482 1481 1480 1479 1478 1477
1477 1479 1481 1482 1483 1484 1486 1487 1489 1490 1491 1491 1492 1492 1492 1491 1491 1491 1491 1492 1492 1492 1491 1491 1490 1490 1489 1488 1487 1486 1485 1483 1481 1480 1479 1479 1479 1478 1477 1477 1476 1474 1473
1475 1477 1479 1480 1481 1482 1483 1485 1486 1487 1488 1489 1489 1489 1489 1489 1488 1488 1488 1488 1488 1488 1488 1487 1487 1487 1486 1485 1484 1483 1481 1480 1478 1477 1476 1476 1476 1475 1474 1473 1472 1471 1470
1473 1475 1477 1478 1479 1480 1481 1482 1483 1484 1485 1486 1486 1486 1486 1486 1486 1485 1485 1485 1485 1485 1484 1484 1483 1483 1482 1481 1481 1479 1478 1476 1475 1474 1474 1473 1473 1472 1471 1470 1469 1468 1467
1472 1474 1476 1476 1477 1478 1480 1481 1481 1482 1483 1483 1484 1483 1483 1483 1483 1483 1482 1482 1482 1481 1481 1480 1480 1479 1478 1478 1477 1476 1475 1473 1472 1472 1471 1470 1470 1469 1468 1467 1466 1465 1464
1470 1472 1474 1475 1476 1477 1477 1478 1479 1480 1480 1481 1481 1481 1481 1481 1480 1480 1480 1479 1479 1478 1478 1477 1476 1476 1474 1474 1474 1472 1471 1470 1469 1469 1468 1467 1466 1465 1464 1463 1462 1462 1461
1469 1470 1471 1472 1473 1474 1475 1476 1477 1477 1477 1477 1477 1477 1477 1477 1477 1477 1476 1476 1476 1475 1475 1474 1473 1472 1472 1471 1470 1469 1468 1468 1467 1466 1464 1464 1463 1462 1461 1460 1459 1458 1457